Regional Weather Roundup
Issued by NWS Northern Indiana

Home | Current Version | Previous Version | Graphics & Text | Print | Product List | Glossary On
Versions: 1 2 3 4 5 6 7 8 9 10 11 12 13 14 15 16 17 18 19 20 21 22 23 24 25 26 27 28 29 30 31 32 33 34 35 36 37 38 39 40 41 42 43 44 45 46 47 48 49 50
000
ASUS43 KIWX 242010
RWRIWX

KIWX WEATHER ROUNDUP
NATIONAL WEATHER SERVICE NORTHERN INDIANA
400 PM EDT SUN JUL 24 2016

NOTE: "FAIR" INDICATES FEW OR NO CLOUDS BELOW 12,000 FEET WITH NO
SIGNIFICANT WEATHER AND/OR OBSTRUCTIONS TO VISIBILITY.

* THESE STATIONS ARE NOT UNDER NWS QUALITY CONTROL. THEY ALSO MAY NOT
  REPORT WEATHER SUCH AS PRECIPITATION OR FOG.

INZ001>027-242100-
NORTHERN INDIANA

CITY           SKY/WX    TMP DP  RH WIND       PRES   REMARKS
GARY*          PTSUNNY   91 N/A N/A S12G23    29.88F
VALPARAISO     MOSUNNY   89  77  67 S15G21    29.92F HX 101
MICHIGAN CITY* MOSUNNY   88  77  70 S17       29.90F HX 100
LAPORTE*       MOSUNNY   89  82  78 S12       29.92S HX 108
KNOX*          MOSUNNY   88  68  51 S12G21    29.91F
SOUTH BEND     CLOUDY    89  76  65 S17       29.92F HX 100
ELKHART*       CLOUDY    90  81  74 S16       29.92F HX 108
GOSHEN         MOSUNNY   90  74  59 SW13      29.93F HX  99
MONTICELLO*    PTSUNNY   90  72  55 SW12      29.94S HX  97
LOGANSPORT*    MOSUNNY   90  73  58 SW13G20   29.96S HX  98
ROCHESTER*     CLOUDY    91  79  66 SW10      29.95F HX 107
WARSAW*        CLOUDY    88  73  62 SW9       29.95F HX  96
ANGOLA*          N/A     84  79  84 S9        29.95F HX  96
FORT WAYNE     PTSUNNY   90  73  57 SW16      29.96F HX  98
HUNTINGTON*    PTSUNNY  N/A N/A N/A SW12      29.96F
PERU/GRISSOM   MOSUNNY   91  76  62 SW14      29.95F HX 103
MARION*        MOSUNNY   89  76  66 SW8       29.97F HAZE    HX 100

$$
INZ028>050-242100-
CENTRAL INDIANA

CITY           SKY/WX    TMP DP  RH WIND       PRES   REMARKS
LAFAYETTE      MOSUNNY   91  77  63 SW10      29.94F HX 104
KOKOMO*        PTSUNNY   91  73  55 SW15      29.96S HX 100
MUNCIE*        MOSUNNY   93  74  53 S12       29.97F HX 103
INDIANAPOLIS   PTSUNNY   92  75  57 SW12      29.97F HX 103

$$
MIZ043>046-050>051-056>058-064>065-071>073-077>080-242100-
SOUTHWEST LOWER MICHIGAN

CITY           SKY/WX    TMP DP  RH WIND       PRES   REMARKS
BATTLE CREEK   CLOUDY    80  77  90 S12       29.93F
BENTON HARBOR  CLOUDY    90  77  65 S14G21    29.88F HX 103
COLDWATER*     MOSUNNY   82  75  78 S6        29.94S
HOLLAND        PTSUNNY   88  76  67 S14       29.88F HX  99
GRAND RAPIDS   PTSUNNY   85  74  69 S20       29.88F
KALAMAZOO      MOSUNNY   86  75  69 S14       29.91F HX  95
STURGIS*       CLOUDY    85  76  74 S13       29.93F HX  95
THREE RIVERS*  FAIR      87  76  69 S13       29.92F HX  97

$$
OHZ001>008-015>018-024>025-242100-
NORTHWEST OHIO

CITY           SKY/WX    TMP DP  RH WIND       PRES   REMARKS
WAUSEON*       FAIR      79  73  83 S7        29.94F
DEFIANCE       MOSUNNY   86  70  58 S9        29.95F
FINDLAY        CLOUDY    83  67  58 SE8       29.96F
TOLEDO EXPRESS MOSUNNY   74  73  97 CALM      29.94F
TOLEDO METCALF CLOUDY    76  73  91 SW6       29.94F
LIMA           MOSUNNY   87  71  58 E10       30.00F

$$
AND FOR LAKE MICHIGAN COASTAL AND OPEN LAKE BUOY OBSERVATIONS

STATION/POSITION TEMP    WIND        PRES    VSBY  WAVE
                 AIR SEA DIR/SP/G                  HT/PER
                 (F)     (DEG/KT/KT) (MB)    (MI)  (FT/S)
CALUMET HARBOR    88     180/ 12/ 16 1011.2F
MICHIGAN CITY     86     160/ 14/ 17   N/A
BURNS HARBOR      87     200/ 13/ 19 1012.9F
SAINT JOSEPH      85     180/  4/  8 1013.2F
SOUTH LAKE BUOY   76 72  150/ 17/ 19 1009.4F         3/ 5
4 MI NW BRIDGMAN  79 74  180/  8/ 10 1011.8F         2/ 3
MICHIGAN CITY     82 74  200/ 10/ 16   N/A           2/ 2

$$
&&




USA.gov is the U.S. government's official web portal to all federal, state and local government web resources and services.